Tracking 30696 objects as of 16-Jun-2025
HD Live streaming from Space Station
objects crossing your sky now

TITAN 3C TRANSTAGE DEB

Track TITAN 3C TRANSTAGE DEB now!


NORAD ID: 5515
Int'l Code: 1965-108M
Perigee: 1,094.0 km
Apogee: 30,183.2 km
Inclination: 27.8 °
Period: 541.6 minutes
Semi major axis: 22009 km
RCS: 0.0962 m2 (small)
Launch date: December 21, 1965
Source: United States (US)
Launch site: AIR FORCE EASTERN TEST RANGE (AFETR)

Note: This is SATELLITE DEBRIS
Your satellite tracking list
Your tracking list is empty




NASA's NSSDC Master Catalog

Two Line Element Set (TLE):
1 05515U 65108M   25166.05046094 -.00000027  00000-0  00000-0 0  9994
2 05515  27.7883  69.5091 6608315 118.6764   0.3247  2.65879854113178
Source of the keplerian elements: AFSPC